CDT,Max TemperatureF,Mean TemperatureF,Min TemperatureF,Max Dew PointF,MeanDew PointF,Min DewpointF,Max Humidity, Mean Humidity, Min Humidity, Max Sea Level PressureIn, Mean Sea Level PressureIn, Min Sea Level PressureIn, Max VisibilityMiles, Mean VisibilityMiles, Min VisibilityMiles, Max Wind SpeedMPH, Mean Wind SpeedMPH, Max Gust SpeedMPH,PrecipitationIn, CloudCover, Events, WindDirDegrees
2014-3-1,78,65,51,58,52,43,83,65,47,30.15,30.09,30.04,10,10,10,15,8,20,0.00,6,,171
2014-3-2,79,62,44,63,57,41,90,70,50,30.16,30.01,29.86,10,10,5,38,12,62,0.03,6,Rain-Thunderstorm,182
2014-3-3,44,35,26,38,26,20,92,81,69,30.31,30.18,29.95,10,9,3,23,13,40,0.12,8,Rain-Thunderstorm,334
2014-3-4,35,31,27,28,25,21,82,76,69,30.25,30.18,30.11,10,9,6,13,4,16,0.00,7,,29
2014-3-5,62,47,31,44,38,28,92,70,48,30.13,30.08,30.01,10,9,6,10,4,16,0.00,5,,9
2014-3-6,49,45,41,45,41,39,96,88,80,30.06,30.03,29.99,10,5,2,15,8,18,0.60,8,Rain,341
2014-3-7,64,50,35,46,41,36,96,70,43,30.11,30.05,29.99,10,7,0,8,2,10,0.00,5,Fog,359
2014-3-8,70,55,40,49,45,39,100,70,39,30.19,30.12,30.04,10,10,8,15,3,20,T,4,,175
2014-3-9,72,60,48,50,47,45,89,65,40,30.24,30.19,30.13,10,10,5,13,3,16,0.00,3,,2
2014-3-10,75,59,43,52,47,42,100,73,46,30.18,30.10,29.94,10,5,0,12,2,16,0.00,0,Fog,208
2014-3-11,69,59,48,63,57,48,100,84,68,29.91,29.77,29.64,10,8,2,14,5,,0.11,6,Rain,154
2014-3-12,63,50,36,61,48,29,93,65,37,30.18,29.86,29.68,10,10,9,26,12,36,0.00,6,,285
2014-3-13,64,48,32,35,30,25,88,53,15,30.31,30.23,30.19,10,10,10,9,1,16,0.00,0,,74
2014-3-14,68,52,35,45,37,32,85,58,31,30.25,30.17,30.10,10,10,10,18,5,23,0.00,3,,183
2014-3-15,70,62,54,58,52,47,93,72,51,30.10,30.01,29.83,10,10,3,15,6,18,0.57,7,Rain,140
2014-3-16,71,57,42,63,56,39,100,79,57,29.84,29.71,29.60,10,8,2,22,9,29,0.48,7,Rain-Thunderstorm,273
2014-3-17,42,40,37,39,35,32,92,84,76,29.91,29.85,29.80,10,10,10,14,8,22,0.00,8,Rain,320
2014-3-18,68,53,38,45,39,35,85,64,42,29.96,29.89,29.83,10,10,10,17,8,21,0.00,4,,162
2014-3-19,77,62,46,55,48,41,93,63,33,30.12,30.03,29.93,10,10,9,16,8,21,0.00,4,,220
2014-3-20,71,57,43,42,37,23,80,49,17,30.20,30.13,30.07,10,10,10,15,4,18,0.00,0,,22
2014-3-21,78,58,37,48,39,35,92,59,25,30.10,30.03,29.94,10,10,9,18,6,24,0.00,4,,179
2014-3-22,78,66,54,60,55,48,86,68,50,30.06,30.02,29.98,10,10,9,9,4,22,T,4,,196
2014-3-23,64,57,49,59,47,36,93,74,54,30.23,30.13,29.97,10,10,7,23,11,31,0.04,6,Rain,9
2014-3-24,66,53,40,36,32,29,70,49,28,30.21,30.13,29.99,10,10,10,14,7,18,0.00,2,,18
2014-3-25,58,46,33,32,27,20,76,50,23,30.29,30.21,30.09,10,10,10,26,9,36,0.00,0,,343
2014-3-26,62,46,30,30,25,21,92,57,22,30.38,30.27,30.18,10,10,10,15,6,22,0.00,3,,136
2014-3-27,75,62,48,61,49,32,93,71,49,30.17,30.04,29.94,10,8,1,26,14,33,1.40,7,Rain-Thunderstorm,155
2014-3-28,76,68,60,64,62,60,100,85,69,29.98,29.90,29.85,10,8,1,24,9,32,2.08,7,Rain-Thunderstorm,148
2014-3-29,65,55,44,61,52,42,100,72,44,30.22,30.02,29.83,10,9,2,25,12,32,0.22,5,Rain-Thunderstorm,310
2014-3-30,72,55,38,42,38,29,96,58,20,30.30,30.21,30.14,10,10,6,10,2,13,0.00,0,,29
2014-3-31,81,61,40,44,38,32,92,55,18,30.16,30.08,29.99,10,10,10,22,8,28,0.00,3,,165